Regional Weather Roundup
Issued by NWS

Home | Current Version | Previous Version | Text Only | Print | Product List | Glossary On
Versions: 1 2 3 4 5 6 7 8 9 10 11 12 13 14 15 16 17 18 19 20 21 22 23 24 25 26 27 28 29 30 31 32 33 34 35 36 37 38 39 40 41 42 43 44 45 46 47 48 49
000
ASUS44 KBMX 292210
RWRAL

ALABAMA REGIONAL WEATHER ROUNDUP
NATIONAL WEATHER SERVICE BIRMINGHAM AL
500 PM CDT FRI MAY 29 2015

NOTE: "FAIR" INDICATES FEW OR NO CLOUDS BELOW 12,000 FEET
WITH NO SIGNIFICANT WEATHER AND/OR OBSTRUCTIONS TO VISIBILITY.

THE REMARK "TC" DENOTES TEMPERATURE IN DEGREES CELSIUS.

ALZ001>011-014-016>018-020-292300-
NORTH ALABAMA

CITY           SKY/WX    TMP DP  RH WIND       PRES   REMARKS
MUSCLE SHOALS  SUNNY     83  67  58 SE10      30.07F
HUNTSVILLE     MOSUNNY   84  68  58 SE14      30.08F
DECATUR        MOSUNNY   81  68  64 SE9       30.08F
HALEYVILLE     PTSUNNY   82  70  67 S3        30.11F
GADSDEN        PTSUNNY  N/A N/A N/A CALM      30.11F
$$

ALZ012-013-022-023-030>036-040>044-292300-
WEST CENTRAL ALABAMA

CITY           SKY/WX    TMP DP  RH WIND       PRES   REMARKS
TUSCALOOSA     SUNNY     86  65  49 S9        30.06F
$$

ALZ015-024>027-033>036-040>044-292300-
CENTRAL ALABAMA

CITY           SKY/WX    TMP DP  RH WIND       PRES   REMARKS
BIRMINGHAM     RAIN      77  68  73 SE10G25   30.12S
MONTGOMERY     SUNNY     87  63  44 SE8       30.07F
SHELBY CO ARPT LGT RAIN  76  70  82 VRB5      30.10F
MAXWELL AFB    MOSUNNY   87  65  47 E13       30.06F
GREENVILLE     FAIR      87  62  43 SE6       30.07F
$$

ALZ019-021-028-029-037-038-045>048-292300-
EAST CENTRAL ALABAMA

CITY           SKY/WX    TMP DP  RH WIND       PRES   REMARKS
ANNISTON       CLOUDY    74  67  78 CALM      30.12F
ALEXANDER CITY MOSUNNY   85  62  44 SE6       30.11F
AUBURN         MOSUNNY   82  61  47 SE10      30.13S
$$

ALZ051>064-292300-
SOUTHWEST ALABAMA

CITY           SKY/WX    TMP DP  RH WIND       PRES   REMARKS
MOBILE         MOSUNNY   84  66  54 S13       30.06F
BROOKLEY FIELD SUNNY     83  70  64 S10G18    30.07F
EVERGREEN      MOSUNNY   87  65  47 E9        30.06F
$$

ALZ049-050-065>069-292300-
SOUTHEAST ALABAMA

CITY           SKY/WX    TMP DP  RH WIND       PRES   REMARKS
DOTHAN         MOSUNNY   84  61  45 E7        30.13S
OZARK          NOT AVBL
TROY           SUNNY     87  60  40 SE7       30.10S
EUFAULA        FAIR      88  61  40 SE5       30.08F
$$


USA.gov is the U.S. government's official web portal to all federal, state and local government web resources and services.